Regional Weather Roundup
Issued by NWS Grand Forks, ND

Current Version | Previous Version | Text Only | Print | Product List | Glossary On
Versions: 1 2 3 4 5 6 7 8 9 10 11 12 13 14 15 16 17 18 19 20 21 22 23 24 25 26 27 28 29 30 31 32 33 34 35 36 37 38 39 40 41 42 43 44 45 46 47 48 49 50
000
ASUS43 KFGF 111631
RWRFGF
PRAIRIE TO PINES  WEATHER ROUNDUP
NATIONAL WEATHER SERVICE EASTERN NORTH DAKOTA/GRAND FORKS ND
1000 AM CST MON DEC 11 2017

 **SATELLITE DATA USED TO AUGMENT SKY COVER AT AUTOMATED STATIONS**
 *****  WEATHER ACROSS EASTERN NORTH DAKOTA  *****

CITY           SKY/WX    TMP DP  RH WIND       PRES   REMARKS
GRAND FORKS    CLOUDY    22  18  85 N35G43    30.11R BLWGSNOWWCI   3
GRAND FRKS AFB CLOUDY    21  16  79 N23G36    30.12R WCI   5
GRAND FRKS NWS   N/A     23 N/A N/A N23         N/A  WCI   7
DEVILS LAKE    FLURRIES  19  16  86 N26G35    30.15R WCI   1
FARGO          CLOUDY    27  22  81 N37G48    30.03R WCI   9
WAHPETON ARPT  CLOUDY    28  23  80 N31G39    30.01R WCI  12
$$

 ***** WEATHER ACROSS CENTRAL AND WESTERN NORTH DAKOTA  *****

CITY           SKY/WX    TMP DP  RH WIND       PRES   REMARKS
BISMARCK       CLOUDY    38  29  70 N16G29    30.18R
MINOT          CLOUDY    32  25  75 N13       30.20R WCI  22
JAMESTOWN      CLOUDY    30  27  88 N29G39    30.07R WCI  15
MINOT AFB      CLOUDY    31  25  76 N16       30.19R WCI  20
GARRISON         N/A     34  26  72 NW25G33   30.18R WCI  21
WILLISTON      MIX PCPN  35  31  85 NW13      30.28R
DICKINSON      CLOUDY    35  31  85 NW20G26   30.21R WCI  24
HETTINGER      CLOUDY    36  28  73 NW25G39   30.23R
$$

 *****  OTHER AIRPORT OBSERVATIONS IN OUR AREA  *****

CITY           SKY/WX    TMP DP  RH WIND       PRES   REMARKS
WALHALLA       FAIR      18  18 100 N26G39    30.19R WCI  -1
GRAFTON AIRPOR NOT AVBL
VALLEY CITY AR NOT AVBL
CANDO          FLURRIES  19  16  86 N18G26    30.20R WCI   4
CAVALIER APRT  FAIR      18  12  79 N26G32    30.16R WCI  -1
GWINNER          N/A     30  27  86 N31G39    30.05R WCI  15
SHEYENNE NWR     N/A     30  28  90 N17       29.95S WCI  18
ROLLA          FLURRIES  18  12  79 N20G30    30.18R WCI   1
 ***** THE ABOVE OBSERVATIONS ARE NON NWS ARE NOT QUALITY
       CONTROLLED AND MAY MIS-REPORT RAIN FOR SNOW...
$$

  *****  WEATHER ACROSS NORTHERN MINNESOTA  *****

CITY           SKY/WX    TMP DP  RH WIND       PRES   REMARKS
FLAG ISLAND    LGT SNOW  18  12  79 N25       30.00R WCI  -1
WARROAD        FLURRIES  21  16  79 N15G26    30.02R WCI   8
ROSEAU         LGT SNOW  21  16  79 N23       30.03R WCI   5
HALLOCK        PTSUNNY   18  12  79 N28G37    30.13R FOG     WCI  -1
THF RVR FALLS  LGT SNOW  21  18  88 N26G35    30.02R FOG     WCI   4
BAUDETTE       CLOUDY    21  15  78 N23G32    29.94R WCI   5
WASKISH        CLOUDY    21  19  93 N10G26    29.93R WCI  10
CROOKSTON      CLOUDY    21  19  93 N32       30.06R FOG     WCI   2
STEPHEN NDAWN    N/A     18  16  93 N24         N/A  WCI   0
GREENBUSH NDAW   N/A     18  14  86 NW24        N/A  WCI   0
$$
  *****  WEATHER ACROSS CENTRAL AND WEST MINNESOTA  *****

CITY           SKY/WX    TMP DP  RH WIND       PRES   REMARKS
FOSSTON        CLOUDY    21  19  93 N23G31    29.98R FOG     WCI   5
BEMIDJI        CLOUDY    24  21  89 N22       29.91R WCI   8
PARK RAPIDS    CLOUDY    28  24  85 N21G30    29.85R WCI  15
ELBOW LAKE     CLOUDY    28  27  96 NW26G33   29.92R FOG     WCI  13
WADENA         CLOUDY    30  27  86 N22G29    29.87R WCI  17
DETROIT LAKES  CLOUDY    28  27  93 N24G38    29.95R WCI  14
MOORHEAD       CLOUDY    25  21  86 N33G40    30.04R WCI   7
FERGUS FALLS   CLOUDY    27  25  93 N28G41    29.97R WCI  11
MORRIS MN      CLOUDY    30  28  93 NW28G36   29.90R WCI  16
STAPLES        CLOUDY    30  27  86 N21G29    29.84R WCI  17
$$
  *****  WEATHER ELSEWHERE ACROSS MINNESOTA  *****

CITY           SKY/WX    TMP DP  RH WIND       PRES   REMARKS
DULUTH         FLURRIES  24  22  91 N12G21    29.73R WCI  13
INTRNTL FALLS  LGT SNOW  20  16  84 N15G23    29.90R FOG     WCI   6
ELY            CLOUDY    19  18  93 NW7       29.76R WCI  10
CLOQUET        CLOUDY    25  23  93 NW8       29.75R FOG     WCI  16
WHEATON        NOT AVBL
BRAINERD       CLOUDY    31  25  78 N24G35    29.83R WCI  17
HIBBING        CLOUDY    23  20  88 N20G26    29.77R WCI   8
ALEXANDRIA     CLOUDY    33  29  85 N25G33    29.86R WCI  20
SAINT CLOUD    CLOUDY    34  31  88 N13G23    29.79R WCI  25
MINNEAPOLIS    CLOUDY    33  32  96 NW6       29.75R
$$

  *****  WEATHER ACROSS SOUTH DAKOTA  *****

CITY           SKY/WX    TMP DP  RH WIND       PRES   REMARKS
SIOUX FALLS    LGT RAIN  39  36  89 NW28G35   29.93R
BROOKINGS      MIX PCPN  36  33  89 NW23G30   29.91R
WATERTOWN      CLOUDY    34  32  92 N28G38    29.93R WCI  21
HURON          CLOUDY    41  33  73 NW30G38   30.01R
SISSETON         N/A     34  30  85 N31G43    29.96R WCI  20
ABERDEEN       CLOUDY    38  33  82 N24G39    30.04R
MITCHELL       CLOUDY    42  33  70 NW30G40   30.02R
PIERRE         CLOUDY    41  30  65 NW29G40   30.14R
MOBRIDGE       CLOUDY    39  31  72 NW26G36   30.09R
RAPID CITY     FAIR      43  20  39 NW40G53   30.22R
$$

  *****  SOME WEATHER IN NEARBY STATES *****

CITY           SKY/WX    TMP DP  RH WIND       PRES   REMARKS
GLASGOW MT     FAIR      29  21  72 W5        30.37R WCI  24
GREAT FALLS MT FAIR      36  15  42 SW13      30.40R
CHEYENNE WY    FAIR      42   3  19 NW13      30.35S
SCOTTSBLUFF NE FAIR      36  11  35 NW13      30.34R
OMAHA NE       FAIR      48  27  44 NW33G45   29.94R
DES MOINES IA  FAIR      44  27  51 NW24G39   29.78R
DAVENPORT IA   FAIR      35  26  69 SE9       29.75F
CHICAGO IL     CLOUDY    32  22  66 S13       29.85F WCI  22
EAU CLAIRE WI  CLOUDY    26  23  88 S7        29.73F FOG     WCI  18
LA CROSSE WI   LGT SNOW  29  24  82 SE8       29.74F VSB 3/4 WCI  21
$$

  *****  SOME NATIONAL WEATHER *****

CITY           SKY/WX    TMP DP  RH WIND       PRES   REMARKS
LA GUARDIA NY  FAIR      39  23  52 W10       30.04R
RALEIGH NC     FAIR      47  28  47 CALM      30.14F
ATLANTA GA     FAIR      48  31  51 SW9       30.19S
NEW ORLEANS LA PTSUNNY   58  41  53 VRB6      30.31F
OKLAHOMA CITY  FAIR      56  14  19 NW6       30.19R
ALBUQUERQUE NM PTSUNNY   32   3  29 N7        30.46F
SALT LAKE CITY FOG       24  21  88 CALM      30.64R VSB 1/8
LOS ANGELES CA PTSUNNY   61  16  17 E6        30.20R
BOISE ID       CLOUDY    23  20  88 E3        30.69R FOG
SEATTLE WA     FAIR      33  31  92 CALM      30.33S
$$

*** WEATHER ACROSS MANITOBA...SASKATCHEWAN AND ONTARIO ***
                ***ONTARIO***

CITY           SKY/WX    TMP DP  RH WIND       PRES   REMARKS
GERALDTON      LGT SNOW   5   1  85 CALM      29.72S
THUNDER BAY    LGT SNOW  12   9  85 SW6       29.75F WCI   3
SIOUX LOOKOUT  FLURRIES  10   5  79 N10G21    29.86R WCI  -3
TORONTO        CLOUDY    21  12  68 N5        30.01F WCI  15
BIG TROUT LK   FLURRIES  -4  -8  84 NW8       29.93R WCI -19
PICKLE LAKE    FLURRIES   1  -4  78 VRB12G23  29.84R WCI -15
DRYDEN         FLURRIES  12   7  79 N14G22    29.88R WCI  -3
KENORA         FLURRIES  14   9  79 N17G29    29.95R WCI  -3
$$
                *** MANITOBA***

CITY           SKY/WX    TMP DP  RH WIND       PRES   REMARKS
BRANDON        MOCLDY    19  12  73 N15G22    30.23R WCI   5
DAUPHIN        FLURRIES  14  10  85 NE13      30.29R WCI   0
ISLAND LAKE    PTCLDY    -9 -13  84 W10       30.12R WCI -28
PILOT MOUND      N/A     16  12  86 N18G26      N/A  WCI  -1
THE PAS        FLURRIES   7   3  85 NW10      30.30S WCI  -8
THOMPSON       PTCLDY   -11 -15  84 W7        30.21S WCI -26
WINNIPEG       PTSUNNY   10   3  72 N21G28    30.19R WCI  -9
LYNN LAKE      CLEAR    -11 -15  84 W6        30.22S WCI -25
CHURCHILL      CRYSTALS  -9 -15  77 N22G30    30.09R BLWGSNOWWCI -35
GILLAM         MOCLDY   -13 -18  77 NW10      30.10R WCI -32
$$
                ***SASKATCHEWAN***

CITY           SKY/WX    TMP DP  RH WIND       PRES   REMARKS
ESTEVAN        CLOUDY    32  28  86 N10       30.24R WCI  24
KINDERSLEY     PTCLDY    27  21  80 W5        30.33S WCI  21
LLOYDMINSTER   PTCLDY    27  21  80 W10       30.28R WCI  17
PRINCE ALBERT  CLOUDY    30  25  80 CALM      30.29R
REGINA         PTCLDY    30  28  93 NW17      30.26R WCI  18
YORKTON        CLOUDY    19  18  93 N14       30.26R WCI   6
N. BATTLEFORD  CLEAR     30  23  74 W9        30.31R WCI  22
LA RONGE       CLOUDY    16  14  93 NE3       30.27R
SASKATOON      MOCLDY    34  30  86 W10       30.30R
SWIFT CURRENT  CLEAR     25  21  86 W10       30.32R WCI  15
$$
NOTE: THESE ARE AUTOMATED STATIONS WITH LIMITED QUALITY CONTROL
      "FAIR" INDICATES FEW OR NO CLOUDS BELOW 12,000 FEET WITH NO
      SIGNIFICANT WEATHER AND/OR OBSTRUCTIONS TO VISIBILITY.
      SKY/WX - SKY CONDITION AND SIGNIFICANT WEATHER.
      TMP - AIR TEMPERATURE.    DP   - DEWPOINT TEMPERATURE.
      RH  - RELATIVE HUMIDITY.  PRES - PRESSURE.
      HX  - HEAT INDEX.         WCI  - WIND CHILL INDEX.
$




USA.gov is the U.S. government's official web portal to all federal, state and local government web resources and services.